| time (UTC) | temp F | wind direction | speed knots | gust knots | rain 1hr in | rain 24hr in | rain mn in | humidity % | barometer mb |
| 20260506080517 | 55 | 252 | 17.4 | 21.7 | 0.00 | 0.00 | 0.00 | 76 | |
| 20260506073510 | 55 | 228 | 15.6 | 19.1 | 0.00 | 0.00 | 0.00 | 81 | |
| 20260506073010 | 55 | 238 | 15.6 | 19.1 | 0.00 | 0.00 | 0.00 | 82 | |
| 20260506072511 | 55 | 235 | 15.6 | 19.1 | 0.00 | 0.00 | 0.00 | 83 | |
| 20260506072013 | 54 | 242 | 13.9 | 17.4 | 0.00 | 0.00 | 0.00 | 84 | |
| 20260506071510 | 54 | 233 | 17.4 | 19.1 | 0.00 | 0.00 | 0.00 | 85 | |
| 20260506071010 | 54 | 241 | 13.9 | 17.4 | 0.00 | 0.00 | 0.00 | 85 | |
| 20260506070511 | 54 | 242 | 15.6 | 17.4 | 0.00 | 0.00 | 0.00 | 85 | |
| 20260506062511 | 52 | 247 | 13.9 | 15.6 | 0.00 | 0.00 | 0.00 | 87 | |
| 20260506062014 | 52 | 243 | 11.3 | 13.9 | 0.00 | 0.00 | 0.00 | 87 | |
| 20260506061511 | 52 | 233 | 13.9 | 17.4 | 0.00 | 0.00 | 0.00 | 87 | |
| 20260506061010 | 52 | 235 | 15.6 | 17.4 | 0.00 | 0.00 | 0.00 | 87 | |
| 20260506060510 | 52 | 220 | 15.6 | 17.4 | 0.00 | 0.00 | 0.00 | 87 | |
| 20260506051011 | 50 | 217 | 15.6 | 17.4 | 0.00 | 0.00 | 0.00 | 88 | |
| 20260506050511 | 50 | 212 | 17.4 | 19.1 | 0.00 | 0.00 | 0.00 | 88 | |
| 20260506045011 | 50 | 190 | 17.4 | 21.7 | 0.00 | 0.00 | 0.00 | 89 | |
| 20260506044510 | 50 | 194 | 15.6 | 19.1 | 0.00 | 0.00 | 0.00 | 89 | |
| 20260506044010 | 50 | 192 | 17.4 | 23.5 | 0.00 | 0.00 | 0.00 | 90 | |
| 20260506043510 | 50 | 201 | 17.4 | 21.7 | 0.00 | 0.00 | 0.00 | 89 | |
| 20260506043009 | 50 | 211 | 17.4 | 19.1 | 0.00 | 0.00 | 0.00 | 90 | |
| 20260506042510 | 50 | 207 | 17.4 | 21.7 | 0.00 | 0.00 | 0.00 | 90 | |
| 20260506042016 | 50 | 208 | 17.4 | 19.1 | 0.00 | 0.00 | 0.00 | 90 | |
| 20260506041511 | 50 | 215 | 15.6 | 15.6 | 0.00 | 0.00 | 0.00 | 90 | |
| 20260506041011 | 50 | 211 | 15.6 | 17.4 | 0.00 | 0.00 | 0.00 | 90 | |
| 20260506040510 | 50 | 216 | 13.9 | 17.4 | 0.00 | 0.00 | 0.00 | 91 | |
| 20260506040010 | 50 | 214 | 17.4 | 17.4 | 0.00 | 0.00 | 0.00 | 91 | |
| 20260506035511 | 50 | 217 | 15.6 | 17.4 | 0.00 | 0.00 | 0.00 | 91 | |
| 20260506035010 | 48 | 213 | 15.6 | 17.4 | 0.00 | 0.00 | 0.00 | 91 | |
| 20260506034511 | 48 | 220 | 15.6 | 17.4 | 0.00 | 0.00 | 0.00 | 91 | |
| 20260506034011 | 48 | 226 | 15.6 | 17.4 | 0.00 | 0.00 | 0.00 | 91 | |
| 20260506033511 | 48 | 224 | 15.6 | 17.4 | 0.00 | 0.00 | 0.00 | 91 | |
| 20260506033010 | 50 | 217 | 19.1 | 19.1 | 0.00 | 0.00 | 0.00 | 91 | |
| 20260506032510 | 50 | 212 | 19.1 | 21.7 | 0.00 | 0.00 | 0.00 | 92 | |
| 20260506032015 | 50 | 211 | 17.4 | 19.1 | 0.00 | 0.00 | 0.00 | 92 | |
| 20260506031511 | 50 | 209 | 17.4 | 19.1 | 0.00 | 0.00 | 0.00 | 92 | |
| 20260506031010 | 50 | 206 | 17.4 | 17.4 | 0.00 | 0.00 | 0.00 | 92 | |
| 20260506030511 | 48 | 212 | 13.9 | 15.6 | 0.00 | 0.00 | 0.00 | 92 | |
| 20260506030011 | 48 | 216 | 11.3 | 13.9 | 0.00 | 0.00 | 0.00 | 92 | |
| 20260506025510 | 48 | 216 | 13.9 | 15.6 | 0.00 | 0.00 | 0.00 | 91 | |
| 20260506025010 | 48 | 227 | 11.3 | 11.3 | 0.00 | 0.00 | 0.00 | 91 | |
| 20260506024512 | 48 | 236 | 11.3 | 13.9 | 0.00 | 0.00 | 0.00 | 91 | |
| 20260506024010 | 48 | 241 | 11.3 | 13.9 | 0.00 | 0.00 | 0.00 | 91 | |
| 20260506023511 | 48 | 240 | 13.9 | 17.4 | 0.00 | 0.00 | 0.00 | 91 | |
| 20260506023011 | 50 | 248 | 11.3 | 13.9 | 0.00 | 0.00 | 0.00 | 91 | |
| 20260506022510 | 50 | 259 | 13.9 | 17.4 | 0.00 | 0.00 | 0.00 | 91 | |
| 20260506022013 | 48 | 245 | 11.3 | 11.3 | 0.00 | 0.00 | 0.00 | 91 | |
| 20260506021511 | 48 | 242 | 7.8 | 9.6 | 0.00 | 0.00 | 0.00 | 92 | |
| 20260506021011 | 50 | 236 | 9.6 | 9.6 | 0.00 | 0.00 | 0.00 | 92 | |
| 20260506020510 | 50 | 255 | 9.6 | 9.6 | 0.00 | 0.00 | 0.00 | 92 | |
| 20260506020010 | 48 | 245 | 9.6 | 11.3 | 0.00 | 0.00 | 0.00 | 92 | |
| 20260506015509 | 48 | 232 | 11.3 | 11.3 | 0.00 | 0.00 | 0.00 | 91 | |
| 20260506015018 | 48 | 234 | 11.3 | 13.9 | 0.00 | 0.00 | 0.00 | 91 | |
| 20260506014511 | 48 | 247 | 13.9 | 13.9 | 0.00 | 0.00 | 0.00 | 91 | |
| 20260506014010 | 48 | 229 | 11.3 | 13.9 | 0.00 | 0.00 | 0.00 | 91 | |
| 20260506013511 | 48 | 219 | 11.3 | 11.3 | 0.00 | 0.00 | 0.00 | 91 | |
| 20260506013011 | 48 | 224 | 11.3 | 11.3 | 0.00 | 0.00 | 0.00 | 91 | |
| 20260506012509 | 48 | 243 | 11.3 | 13.9 | 0.00 | 0.00 | 0.00 | 90 | |
| 20260506012010 | 48 | 239 | 13.9 | 13.9 | 0.00 | 0.00 | 0.00 | 90 | |
| 20260506011510 | 48 | 241 | 13.9 | 15.6 | 0.00 | 0.00 | 0.00 | 90 | |
| 20260506011010 | 48 | 244 | 15.6 | 15.6 | 0.00 | 0.00 | 0.00 | 90 | |
| 20260506010510 | 50 | 251 | 13.9 | 15.6 | 0.00 | 0.00 | 0.00 | 90 | |
| 20260506010010 | 50 | 238 | 11.3 | 13.9 | 0.00 | 0.00 | 0.00 | 90 | |
| 20260506005510 | 50 | 237 | 13.9 | 13.9 | 0.00 | 0.00 | 0.00 | 90 | |
| 20260506005010 | 50 | 238 | 13.9 | 13.9 | 0.00 | 0.00 | 0.00 | 90 | |
| 20260506004511 | 50 | 243 | 13.9 | 13.9 | 0.00 | 0.00 | 0.00 | 89 | |
| 20260506004010 | 50 | 247 | 13.9 | 13.9 | 0.00 | 0.00 | 0.00 | 89 | |
| 20260506003510 | 50 | 243 | 11.3 | 13.9 | 0.00 | 0.00 | 0.00 | 89 | |
| 20260506003011 | 50 | 239 | 13.9 | 13.9 | 0.00 | 0.00 | 0.00 | 89 | |
| 20260506002509 | 50 | 232 | 11.3 | 13.9 | 0.00 | 0.00 | 0.00 | 88 | |
| 20260506002011 | 50 | 229 | 13.9 | 15.6 | 0.00 | 0.00 | 0.00 | 88 | |
| 20260506001510 | 50 | 235 | 11.3 | 11.3 | 0.00 | 0.00 | 0.00 | 88 | |
| 20260506001010 | 50 | 245 | 9.6 | 9.6 | 0.00 | 0.00 | 0.00 | 87 | |
| 20260506000511 | 50 | 238 | 9.6 | 9.6 | 0.00 | 0.00 | 0.00 | 87 | |
| 20260505235510 | 50 | 233 | 9.6 | 9.6 | 0.00 | 0.00 | 0.00 | 86 | |
| 20260505235010 | 50 | 239 | 9.6 | 9.6 | 0.00 | 0.00 | 0.00 | 85 | |
| 20260505234510 | 50 | 242 | 7.8 | 7.8 | 0.00 | 0.00 | 0.00 | 84 | |
| 20260505234011 | 50 | 255 | 6.1 | 7.8 | 0.00 | 0.00 | 0.00 | 84 | |
| 20260505233510 | 52 | 273 | 6.1 | 6.1 | 0.00 | 0.00 | 0.00 | 83 | |
| 20260505233011 | 52 | 279 | 7.8 | 7.8 | 0.00 | 0.00 | 0.00 | 84 | |
| 20260505231010 | 52 | 279 | 6.1 | 6.1 | 0.00 | 0.00 | 0.00 | 84 | |
| 20260505230511 | 52 | 288 | 3.5 | 6.1 | 0.00 | 0.00 | 0.00 | 85 | |
| 20260505230010 | 52 | 291 | 3.5 | 6.1 | 0.00 | 0.00 | 0.00 | 85 | |
| 20260505225509 | 52 | 297 | 3.5 | 3.5 | 0.00 | 0.00 | 0.00 | 85 | |
| 20260505225010 | 52 | 294 | 6.1 | 6.1 | 0.00 | 0.00 | 0.00 | 86 | |
| 20260505224510 | 50 | 165 | 0.0 | 0.0 | 0.00 | 0.00 | 0.00 | 85 | |
| 20260505224018 | 52 | 311 | 1.7 | 1.7 | 0.00 | 0.00 | 0.00 | 85 | |
| 20260505223510 | 52 | 311 | 1.7 | 1.7 | 0.00 | 0.00 | 0.00 | 86 | |
| 20260505223011 | 52 | 311 | 3.5 | 6.1 | 0.00 | 0.00 | 0.00 | 87 | |
| 20260505222510 | 52 | 312 | 6.1 | 7.8 | 0.00 | 0.00 | 0.00 | 87 | |
| 20260505222013 | 52 | 307 | 7.8 | 7.8 | 0.00 | 0.00 | 0.00 | 88 | |
| 20260505221511 | 52 | 329 | 9.6 | 11.3 | 0.00 | 0.00 | 0.00 | 89 | |
| 20260505221010 | 50 | 324 | 9.6 | 11.3 | 0.00 | 0.00 | 0.00 | 89 | |
| 20260505220510 | 50 | 309 | 7.8 | 9.6 | 0.00 | 0.00 | 0.00 | 89 | |
| 20260505220010 | 50 | 325 | 11.3 | 13.9 | 0.00 | 0.00 | 0.00 | 89 | |
| 20260505215510 | 50 | 322 | 11.3 | 13.9 | 0.00 | 0.00 | 0.00 | 89 | |
| 20260505215015 | 50 | 314 | 11.3 | 11.3 | 0.00 | 0.00 | 0.00 | 89 | |
| 20260505214510 | 50 | 295 | 9.6 | 9.6 | 0.00 | 0.00 | 0.00 | 88 | |
| 20260505214010 | 50 | 296 | 9.6 | 11.3 | 0.00 | 0.00 | 0.00 | 88 | |
| 20260505213510 | 50 | 290 | 13.9 | 15.6 | 0.00 | 0.00 | 0.00 | 88 | |
| 20260505213010 | 50 | 286 | 15.6 | 15.6 | 0.00 | 0.00 | 0.00 | 88 | |
| 20260505212511 | 50 | 286 | 13.9 | 17.4 | 0.00 | 0.00 | 0.00 | 88 | |
| 20260505212011 | 50 | 285 | 13.9 | 15.6 | 0.00 | 0.00 | 0.00 | 88 | |
| 20260505211511 | 50 | 288 | 15.6 | 17.4 | 0.00 | 0.00 | 0.00 | 88 | |
| 20260505211010 | 50 | 280 | 21.7 | 23.5 | 0.00 | 0.00 | 0.00 | 88 | |
| 20260505210510 | 50 | 280 | 19.1 | 21.7 | 0.00 | 0.00 | 0.00 | 88 | |
| 20260505210010 | 50 | 275 | 19.1 | 21.7 | 0.00 | 0.00 | 0.00 | 87 | |
| 20260505205510 | 50 | 284 | 19.1 | 21.7 | 0.00 | 0.00 | 0.00 | 87 | |
| 20260505205009 | 50 | 279 | 15.6 | 17.4 | 0.00 | 0.00 | 0.00 | 85 | |
| 20260505204511 | 50 | 299 | 11.3 | 13.9 | 0.00 | 0.00 | 0.00 | 86 | |
| 20260505204010 | 50 | 268 | 17.4 | 21.7 | 0.00 | 0.00 | 0.00 | 85 | |
| 20260505203517 | 50 | 276 | 15.6 | 21.7 | 0.00 | 0.00 | 0.00 | 85 | |
| 20260505203011 | 50 | 280 | 25.2 | 29.5 | 0.00 | 0.00 | 0.00 | 84 | |
| 20260505202511 | 50 | 274 | 29.5 | 33.0 | 0.00 | 0.00 | 0.00 | 83 | |
| 20260505202019 | 50 | 273 | 34.8 | 39.1 | 0.00 | 0.00 | 0.00 | 81 | |
| 20260505201510 | 52 | 278 | 34.8 | 40.8 | 0.00 | 0.00 | 0.00 | 79 | |
| 20260505201010 | 57 | 277 | 19.1 | 21.7 | 0.00 | 0.00 | 0.00 | 73 | |
| 20260505200511 | 59 | 325 | 3.5 | 6.1 | 0.00 | 0.00 | 0.00 | 70 | |
| 20260505200011 | 59 | 17 | 6.1 | 7.8 | 0.00 | 0.00 | 0.00 | 70 | |
| 20260505195509 | 59 | 42 | 9.6 | 9.6 | 0.00 | 0.00 | 0.00 | 70 | |
| 20260505195010 | 59 | 53 | 9.6 | 11.3 | 0.00 | 0.00 | 0.00 | 70 | |
| 20260505194511 | 59 | 56 | 9.6 | 13.9 | 0.00 | 0.00 | 0.00 | 70 | |
| 20260505194010 | 59 | 58 | 11.3 | 13.9 | 0.00 | 0.00 | 0.00 | 69 | |
| 20260505193511 | 59 | 54 | 13.9 | 13.9 | 0.00 | 0.00 | 0.00 | 69 | |
| 20260505193011 | 59 | 58 | 15.6 | 19.1 | 0.00 | 0.00 | 0.00 | 68 | |
| 20260505192510 | 59 | 59 | 15.6 | 19.1 | 0.00 | 0.00 | 0.00 | 68 | |
| 20260505192013 | 61 | 52 | 17.4 | 19.1 | 0.00 | 0.00 | 0.00 | 67 | |
| 20260505191511 | 61 | 54 | 17.4 | 19.1 | 0.00 | 0.00 | 0.00 | 67 | |
| 20260505191010 | 61 | 47 | 17.4 | 21.7 | 0.00 | 0.00 | 0.00 | 66 | |
| 20260505190510 | 61 | 47 | 17.4 | 19.1 | 0.00 | 0.00 | 0.00 | 66 | |
| 20260505190011 | 61 | 50 | 17.4 | 21.7 | 0.00 | 0.00 | 0.00 | 66 | |
| 20260505185511 | 61 | 56 | 15.6 | 17.4 | 0.00 | 0.00 | 0.00 | 66 | |
| 20260505185011 | 61 | 56 | 13.9 | 15.6 | 0.00 | 0.00 | 0.00 | 65 | |
| 20260505184511 | 61 | 63 | 9.6 | 11.3 | 0.00 | 0.00 | 0.00 | 64 | |
| 20260505184011 | 61 | 66 | 6.1 | 7.8 | 0.00 | 0.00 | 0.00 | 64 | |
| 20260505183510 | 61 | 51 | 7.8 | 11.3 | 0.00 | 0.00 | 0.00 | 64 | |
| 20260505183011 | 61 | 42 | 6.1 | 9.6 | 0.00 | 0.00 | 0.00 | 64 | |
| 20260505182510 | 61 | 45 | 6.1 | 9.6 | 0.00 | 0.00 | 0.00 | 63 | |
| 20260505182013 | 61 | 41 | 6.1 | 7.8 | 0.00 | 0.00 | 0.00 | 63 | |
| 20260505181510 | 61 | 28 | 6.1 | 9.6 | 0.00 | 0.00 | 0.00 | 63 | |
| 20260505181010 | 61 | 13 | 11.3 | 13.9 | 0.00 | 0.00 | 0.00 | 63 | |
| 20260505180510 | 61 | 17 | 7.8 | 9.6 | 0.00 | 0.00 | 0.00 | 62 | |
| 20260505180011 | 61 | 21 | 9.6 | 13.9 | 0.00 | 0.00 | 0.00 | 62 | |
| 20260505175510 | 61 | 12 | 13.9 | 15.6 | 0.00 | 0.00 | 0.00 | 62 | |
| 20260505175010 | 61 | 9 | 13.9 | 15.6 | 0.00 | 0.00 | 0.00 | 62 | |
| 20260505174510 | 61 | 5 | 13.9 | 15.6 | 0.00 | 0.00 | 0.00 | 62 | |
| 20260505174009 | 61 | 358 | 11.3 | 15.6 | 0.00 | 0.00 | 0.00 | 62 | |
| 20260505173511 | 61 | 9 | 13.9 | 17.4 | 0.00 | 0.00 | 0.00 | 61 | |
| 20260505173015 | 63 | 2 | 13.9 | 17.4 | 0.00 | 0.00 | 0.00 | 61 | |
| 20260505172511 | 63 | 3 | 17.4 | 19.1 | 0.00 | 0.00 | 0.00 | 61 | |
| 20260505172012 | 63 | 358 | 13.9 | 19.1 | 0.00 | 0.00 | 0.00 | 61 | |
| 20260505171010 | 63 | 6 | 17.4 | 21.7 | 0.00 | 0.00 | 0.00 | 61 | |
| 20260505170510 | 63 | 8 | 17.4 | 21.7 | 0.00 | 0.00 | 0.00 | 61 | |
| 20260505170010 | 63 | 13 | 17.4 | 23.5 | 0.00 | 0.00 | 0.00 | 61 | |
| 20260505165511 | 63 | 7 | 13.9 | 15.6 | 0.00 | 0.00 | 0.00 | 61 | |
| 20260505165010 | 63 | 8 | 15.6 | 19.1 | 0.00 | 0.00 | 0.00 | 61 | |
| 20260505164511 | 63 | 8 | 17.4 | 21.7 | 0.00 | 0.00 | 0.00 | 61 | |
| 20260505164010 | 63 | 359 | 15.6 | 17.4 | 0.00 | 0.00 | 0.00 | 61 | |
| 20260505163511 | 63 | 3 | 13.9 | 17.4 | 0.00 | 0.00 | 0.00 | 60 | |
| 20260505163012 | 63 | 10 | 13.9 | 15.6 | 0.00 | 0.00 | 0.00 | 60 | |
| 20260505162510 | 63 | 2 | 15.6 | 19.1 | 0.00 | 0.00 | 0.00 | 60 | |
| 20260505162010 | 64 | 5 | 13.9 | 15.6 | 0.00 | 0.00 | 0.00 | 59 | |
| 20260505161511 | 64 | 10 | 13.9 | 15.6 | 0.00 | 0.00 | 0.00 | 59 | |
| 20260505161010 | 64 | 355 | 17.4 | 19.1 | 0.00 | 0.00 | 0.00 | 59 | |
| 20260505160510 | 64 | 358 | 17.4 | 21.7 | 0.00 | 0.00 | 0.00 | 58 | |
| 20260505153010 | 66 | 350 | 17.4 | 21.7 | 0.00 | 0.00 | 0.00 | 53 | |
| 20260505152510 | 66 | 355 | 19.1 | 25.2 | 0.00 | 0.00 | 0.00 | 53 | |
| 20260505152012 | 66 | 344 | 17.4 | 19.1 | 0.00 | 0.00 | 0.00 | 53 | |
| 20260505151510 | 66 | 350 | 15.6 | 19.1 | 0.00 | 0.00 | 0.00 | 53 | |
| 20260505151010 | 66 | 342 | 17.4 | 23.5 | 0.00 | 0.00 | 0.00 | 52 | |
| 20260505150511 | 66 | 344 | 17.4 | 21.7 | 0.00 | 0.00 | 0.00 | 52 | |
| 20260505140510 | 68 | 354 | 11.3 | 17.4 | 0.00 | 0.00 | 0.00 | 47 | |
| 20260505125010 | 73 | 107 | 3.5 | 6.1 | 0.00 | 0.00 | 0.00 | 38 | |
| 20260505124510 | 72 | 82 | 1.7 | 3.5 | 0.00 | 0.00 | 0.00 | 39 | |
| 20260505124010 | 72 | 91 | 3.5 | 6.1 | 0.00 | 0.00 | 0.00 | 39 | |
| 20260505123511 | 72 | 106 | 3.5 | 6.1 | 0.00 | 0.00 | 0.00 | 39 | |
| 20260505123010 | 72 | 56 | 3.5 | 7.8 | 0.00 | 0.00 | 0.00 | 40 | |
| 20260505122509 | 72 | 33 | 6.1 | 7.8 | 0.00 | 0.00 | 0.00 | 41 | |
| 20260505122013 | 72 | 37 | 6.1 | 7.8 | 0.00 | 0.00 | 0.00 | 40 | |
| 20260505121510 | 72 | 55 | 1.7 | 3.5 | 0.00 | 0.00 | 0.00 | 40 | |
| 20260505121010 | 72 | 52 | 3.5 | 6.1 | 0.00 | 0.00 | 0.00 | 40 | |
| 20260505120510 | 73 | 358 | 3.5 | 6.1 | 0.00 | 0.00 | 0.00 | 40 | |
| 20260505120010 | 72 | 144 | 3.5 | 3.5 | 0.00 | 0.00 | 0.00 | 40 | |
| 20260505115509 | 72 | 118 | 3.5 | 6.1 | 0.00 | 0.00 | 0.00 | 40 | |
| 20260505115010 | 72 | 91 | 3.5 | 6.1 | 0.00 | 0.00 | 0.00 | 41 | |
| 20260505114510 | 73 | 80 | 3.5 | 6.1 | 0.00 | 0.00 | 0.00 | 40 | |
| 20260505114014 | 72 | 5 | 1.7 | 6.1 | 0.00 | 0.00 | 0.00 | 43 | |
| 20260505113511 | 72 | 58 | 3.5 | 6.1 | 0.00 | 0.00 | 0.00 | 43 | |
| 20260505113011 | 70 | 38 | 3.5 | 6.1 | 0.00 | 0.00 | 0.00 | 43 | |
| 20260505112511 | 70 | 48 | 3.5 | 6.1 | 0.00 | 0.00 | 0.00 | 43 | |
| 20260505112012 | 72 | 19 | 3.5 | 6.1 | 0.00 | 0.00 | 0.00 | 43 | |
| 20260505111511 | 72 | 66 | 1.7 | 3.5 | 0.00 | 0.00 | 0.00 | 44 | |
| 20260505111011 | 72 | 39 | 6.1 | 7.8 | 0.00 | 0.00 | 0.00 | 43 | |
| 20260505110510 | 72 | 132 | 6.1 | 7.8 | 0.00 | 0.00 | 0.00 | 43 | |
| 20260505101511 | 68 | 27 | 3.5 | 6.1 | 0.00 | 0.00 | 0.00 | 47 | |
| 20260505101010 | 70 | 51 | 3.5 | 7.8 | 0.00 | 0.00 | 0.00 | 47 | |
| 20260505100510 | 70 | 350 | 1.7 | 6.1 | 0.00 | 0.00 | 0.00 | 48 | |
| 20260505100011 | 68 | 7 | 1.7 | 1.7 | 0.00 | 0.00 | 0.00 | 48 | |
| 20260505095510 | 68 | 12 | 0.0 | 1.7 | 0.00 | 0.00 | 0.00 | 48 | |
| 20260505095010 | 68 | 331 | 0.0 | 3.5 | 0.00 | 0.00 | 0.00 | 48 | |
| 20260505094510 | 68 | 1 | 1.7 | 6.1 | 0.00 | 0.00 | 0.00 | 48 | |
| 20260505094010 | 68 | 5 | 1.7 | 3.5 | 0.00 | 0.00 | 0.00 | 48 | |
| 20260505093511 | 68 | 326 | 1.7 | 1.7 | 0.00 | 0.00 | 0.00 | 49 | |
| 20260505093015 | 68 | 331 | 1.7 | 7.8 | 0.00 | 0.00 | 0.00 | 49 | |
| 20260505092510 | 66 | 329 | 3.5 | 3.5 | 0.00 | 0.00 | 0.00 | 49 | |
| 20260505092012 | 66 | 344 | 1.7 | 6.1 | 0.00 | 0.00 | 0.00 | 49 | |
| 20260505091510 | 66 | 335 | 1.7 | 3.5 | 0.00 | 0.00 | 0.00 | 49 | |
| 20260505091010 | 68 | 7 | 6.1 | 7.8 | 0.00 | 0.00 | 0.00 | 48 | |
| 20260505090510 | 68 | 344 | 1.7 | 1.7 | 0.00 | 0.00 | 0.00 | 48 | |
| 20260505090011 | 68 | 355 | 3.5 | 3.5 | 0.00 | 0.00 | 0.00 | 49 | |
| 20260505085510 | 66 | 351 | 3.5 | 6.1 | 0.00 | 0.00 | 0.00 | 50 | |
| 20260505085010 | 68 | 301 | 0.0 | 1.7 | 0.00 | 0.00 | 0.00 | 50 | |
| 20260505084510 | 68 | 352 | 3.5 | 3.5 | 0.00 | 0.00 | 0.00 | 51 | |
| 20260505084010 | 66 | 334 | 1.7 | 1.7 | 0.00 | 0.00 | 0.00 | 52 | |
| 20260505083511 | 66 | 336 | 1.7 | 1.7 | 0.00 | 0.00 | 0.00 | 53 | |
| 20260505083011 | 64 | 334 | 1.7 | 3.5 | 0.00 | 0.00 | 0.00 | 53 | |
| 20260505082510 | 64 | 21 | 3.5 | 3.5 | 0.00 | 0.00 | 0.00 | 54 | |
| 20260505082013 | 64 | 299 | 0.0 | 0.0 | 0.00 | 0.00 | 0.00 | 54 | |
| 20260505081510 | 64 | 305 | 1.7 | 1.7 | 0.00 | 0.00 | 0.00 | 54 | |
| 20260505081010 | 64 | 306 | 0.0 | 0.0 | 0.00 | 0.00 | 0.00 | 56 |